Time,TemperatureF,DewpointF,PressureIn,WindDirection,WindDirectionDegrees,WindSpeedMPH,WindSpeedGustMPH,Humidity,HourlyPrecipIn,Conditions,Clouds,dailyrainin,SoftwareType,DateUTC
2013-01-16 00:00:00,35.8,-8.7,30.42,NE,41,3.6,14.5,14,0.00,,---,0.00,VWS V14.01,2013-01-16 08:00:00,
2013-01-16 00:20:00,37.2,-7.6,30.42,NNW,340,6.3,12.3,14,0.00,,---,0.00,VWS V14.01,2013-01-16 08:20:00,
2013-01-16 00:40:00,38.1,-6.9,30.42,NNW,345,8.3,16.3,14,0.00,,---,0.00,VWS V14.01,2013-01-16 08:40:00,
2013-01-16 01:00:00,38.3,-6.7,30.42,North,6,6.3,18.3,14,0.00,,---,0.00,VWS V14.01,2013-01-16 09:00:00,
2013-01-16 01:20:00,39.4,-7.4,30.39,NNE,25,5.4,11.0,13,0.00,,---,0.00,VWS V14.01,2013-01-16 09:20:00,
2013-01-16 01:40:00,39.7,-7.1,30.42,NNE,17,4.9,14.1,13,0.00,,---,0.00,VWS V14.01,2013-01-16 09:40:00,
2013-01-16 02:00:00,40.1,-6.8,30.42,North,349,5.4,12.8,13,0.00,,---,0.00,VWS V14.01,2013-01-16 10:00:00,
2013-01-16 02:20:00,40.1,-6.8,30.39,North,2,7.2,11.9,13,0.00,,---,0.00,VWS V14.01,2013-01-16 10:20:00,
2013-01-16 02:40:00,39.4,-7.4,30.42,North,349,3.1,13.2,13,0.00,,---,0.00,VWS V14.01,2013-01-16 10:40:00,
2013-01-16 03:00:00,39.7,-7.1,30.42,NNE,16,5.8,10.1,13,0.00,,---,0.00,VWS V14.01,2013-01-16 11:00:00,
2013-01-16 03:20:00,39.0,-6.1,30.42,NNE,29,5.8,8.7,14,0.00,,---,0.00,VWS V14.01,2013-01-16 11:20:00,
2013-01-16 03:40:00,38.3,-6.7,30.39,North,357,10.1,10.1,14,0.00,,---,0.00,VWS V14.01,2013-01-16 11:40:00,
2013-01-16 04:00:00,37.4,-7.4,30.39,NNW,342,5.8,10.5,14,0.00,,---,0.00,VWS V14.01,2013-01-16 12:00:00,
2013-01-16 04:20:00,37.9,-7.0,30.39,North,8,5.4,10.1,14,0.00,,---,0.00,VWS V14.01,2013-01-16 12:20:00,
2013-01-16 04:40:00,39.4,-7.4,30.39,North,8,8.1,12.3,13,0.00,,---,0.00,VWS V14.01,2013-01-16 12:40:00,
2013-01-16 05:00:00,39.0,-6.1,30.39,North,357,5.4,11.0,14,0.00,,---,0.00,VWS V14.01,2013-01-16 13:00:00,
2013-01-16 05:20:00,39.0,-6.1,30.39,NNE,24,3.1,10.5,14,0.00,,---,0.00,VWS V14.01,2013-01-16 13:20:00,
2013-01-16 05:40:00,39.2,-7.5,30.39,NNW,338,9.6,11.0,13,0.00,,---,0.00,VWS V14.01,2013-01-16 13:40:00,
2013-01-16 06:00:00,39.0,-6.1,30.39,NNE,17,6.3,12.3,14,0.00,,---,0.00,VWS V14.01,2013-01-16 14:00:00,
2013-01-16 06:20:00,38.7,-6.4,30.39,NNW,341,2.7,10.1,14,0.00,,---,0.00,VWS V14.01,2013-01-16 14:20:00,
2013-01-16 06:40:00,40.1,-6.8,30.39,North,357,8.1,12.3,13,0.00,,---,0.00,VWS V14.01,2013-01-16 14:40:00,
2013-01-16 07:00:00,40.5,-6.5,30.39,North,353,5.8,12.8,13,0.00,,---,0.00,VWS V14.01,2013-01-16 15:00:00,
2013-01-16 07:20:00,39.2,-7.5,30.39,North,2,4.0,8.3,13,0.00,,---,0.00,VWS V14.01,2013-01-16 15:20:00,
2013-01-16 07:40:00,45.1,-4.4,30.39,NNE,17,8.3,11.9,12,0.00,,---,0.00,VWS V14.01,2013-01-16 15:40:00,
2013-01-16 08:00:00,46.4,-3.4,30.42,North,4,5.8,15.9,12,0.00,,---,0.00,VWS V14.01,2013-01-16 16:00:00,
2013-01-16 08:20:00,48.2,-3.8,30.42,North,3,5.8,12.8,11,0.00,,---,0.00,VWS V14.01,2013-01-16 16:20:00,
2013-01-16 08:40:00,49.6,2.4,30.42,North,11,4.9,11.4,14,0.00,,---,0.00,VWS V14.01,2013-01-16 16:40:00,
2013-01-16 09:00:00,50.0,2.7,30.42,North,2,5.8,11.0,14,0.00,,---,0.00,VWS V14.01,2013-01-16 17:00:00,
2013-01-16 09:20:00,49.8,2.5,30.42,North,0,9.2,15.0,14,0.00,,---,0.00,VWS V14.01,2013-01-16 17:20:00,
2013-01-16 09:40:00,48.9,1.8,30.42,North,353,8.3,14.5,14,0.00,,---,0.00,VWS V14.01,2013-01-16 17:40:00,
2013-01-16 10:00:00,49.8,2.5,30.42,North,357,8.3,13.2,14,0.00,,---,0.00,VWS V14.01,2013-01-16 18:00:00,
2013-01-16 10:20:00,51.6,4.0,30.42,NE,35,8.1,12.8,14,0.00,,---,0.00,VWS V14.01,2013-01-16 18:20:00,
2013-01-16 10:40:00,50.9,3.4,30.39,North,0,11.0,14.5,14,0.00,,---,0.00,VWS V14.01,2013-01-16 18:40:00,
2013-01-16 11:00:00,50.5,3.1,30.39,North,4,10.5,17.4,14,0.00,,---,0.00,VWS V14.01,2013-01-16 19:00:00,
2013-01-16 11:20:00,53.2,3.7,30.39,North,1,5.8,17.0,13,0.00,,---,0.00,VWS V14.01,2013-01-16 19:20:00,
2013-01-16 11:40:00,51.6,4.0,30.39,NNE,17,12.3,22.4,14,0.00,,---,0.00,VWS V14.01,2013-01-16 19:40:00,
2013-01-16 12:00:00,54.3,4.5,30.39,North,353,10.1,15.9,13,0.00,,---,0.00,VWS V14.01,2013-01-16 20:00:00,
2013-01-16 12:20:00,56.5,4.5,30.36,ENE,60,9.2,15.4,12,0.00,,---,0.00,VWS V14.01,2013-01-16 20:20:00,
2013-01-16 13:00:00,59.2,6.6,30.36,North,353,5.4,6.7,12,0.00,,---,0.00,VWS V14.01,2013-01-16 21:00:00,
2013-01-16 13:20:00,54.9,5.0,30.36,North,5,17.4,17.9,13,0.00,,---,0.00,VWS V14.01,2013-01-16 21:20:00,
2013-01-16 13:40:00,57.2,5.1,30.33,North,5,8.3,17.4,12,0.00,,---,0.00,VWS V14.01,2013-01-16 21:40:00,
2013-01-16 14:00:00,59.5,6.9,30.36,NNE,22,7.6,17.0,12,0.00,,---,0.00,VWS V14.01,2013-01-16 22:00:00,
2013-01-16 14:20:00,56.8,4.8,30.36,NNE,18,5.4,15.4,12,0.00,,---,0.00,VWS V14.01,2013-01-16 22:20:00,
2013-01-16 14:40:00,57.9,5.6,30.33,NNE,21,7.2,14.1,12,0.00,,---,0.00,VWS V14.01,2013-01-16 22:40:00,
2013-01-16 15:00:00,58.5,6.1,30.33,NW,320,8.3,10.5,12,0.00,,---,0.00,VWS V14.01,2013-01-16 23:00:00,
2013-01-16 15:20:00,59.4,6.8,30.33,North,6,3.6,10.1,12,0.00,,---,0.00,VWS V14.01,2013-01-16 23:20:00,
2013-01-16 15:40:00,53.2,3.7,30.36,NNW,342,7.6,15.4,13,0.00,,---,0.00,VWS V14.01,2013-01-16 23:40:00,
2013-01-16 16:00:00,52.0,2.7,30.36,WNW,289,5.8,13.6,13,0.00,,---,0.00,VWS V14.01,2013-01-17 00:00:00,
2013-01-16 16:20:00,49.8,2.5,30.36,North,3,7.6,15.4,14,0.00,,---,0.00,VWS V14.01,2013-01-17 00:20:00,
2013-01-16 16:40:00,46.4,-0.2,30.36,North,353,16.3,16.3,14,0.00,,---,0.00,VWS V14.01,2013-01-17 00:40:00,
2013-01-16 17:00:00,45.3,-4.3,30.33,NNW,341,3.1,16.3,12,0.00,,---,0.00,VWS V14.01,2013-01-17 01:00:00,
2013-01-16 17:20:00,43.9,-3.8,30.36,NNE,21,4.0,11.0,13,0.00,,---,0.00,VWS V14.01,2013-01-17 01:20:00,
2013-01-16 17:40:00,44.1,-3.6,30.36,NNW,348,8.3,18.3,13,0.00,,---,0.00,VWS V14.01,2013-01-17 01:40:00,
2013-01-16 18:00:00,44.2,-3.5,30.36,North,357,5.4,15.9,13,0.00,,---,0.00,VWS V14.01,2013-01-17 02:00:00,
2013-01-16 18:20:00,44.2,-3.5,30.36,North,349,6.7,12.3,13,0.00,,---,0.00,VWS V14.01,2013-01-17 02:20:00,
2013-01-16 18:40:00,43.7,-3.9,30.36,North,353,11.0,14.1,13,0.00,,---,0.00,VWS V14.01,2013-01-17 02:40:00,
2013-01-16 19:00:00,44.6,-4.9,30.36,North,7,8.1,15.4,12,0.00,,---,0.00,VWS V14.01,2013-01-17 03:00:00,
2013-01-16 19:20:00,43.2,-4.3,30.36,NNW,332,6.3,16.8,13,0.00,,---,0.00,VWS V14.01,2013-01-17 03:20:00,
2013-01-16 19:40:00,43.3,-4.2,30.36,North,357,8.7,17.0,13,0.00,,---,0.00,VWS V14.01,2013-01-17 03:40:00,
2013-01-16 20:00:00,43.7,-3.9,30.36,North,0,5.8,15.4,13,0.00,,---,0.00,VWS V14.01,2013-01-17 04:00:00,
2013-01-16 20:20:00,44.1,-3.6,30.36,North,2,5.4,15.0,13,0.00,,---,0.00,VWS V14.01,2013-01-17 04:20:00,
2013-01-16 20:40:00,44.6,-4.9,30.36,NE,48,7.6,17.0,12,0.00,,---,0.00,VWS V14.01,2013-01-17 04:40:00,
2013-01-16 21:00:00,43.3,-4.2,30.36,NNW,344,8.3,15.0,13,0.00,,---,0.00,VWS V14.01,2013-01-17 05:00:00,
2013-01-16 21:20:00,43.5,-4.1,30.36,North,357,11.0,15.4,13,0.00,,---,0.00,VWS V14.01,2013-01-17 05:20:00,
2013-01-16 21:40:00,45.3,-4.3,30.33,ENE,66,9.2,16.8,12,0.00,,---,0.00,VWS V14.01,2013-01-17 05:40:00,
2013-01-16 22:00:00,46.0,-3.7,30.33,North,353,8.7,21.0,12,0.00,,---,0.00,VWS V14.01,2013-01-17 06:00:00,
2013-01-16 22:20:00,45.1,-4.4,30.33,NNW,333,8.1,15.4,12,0.00,,---,0.00,VWS V14.01,2013-01-17 06:20:00,
2013-01-16 22:40:00,45.0,-4.6,30.33,NE,51,5.4,15.9,12,0.00,,---,0.00,VWS V14.01,2013-01-17 06:40:00,
2013-01-16 23:00:00,45.1,-4.4,30.33,NE,38,16.3,17.0,12,0.00,,---,0.00,VWS V14.01,2013-01-17 07:00:00,
2013-01-16 23:20:00,43.7,-3.9,30.33,NNE,14,8.1,16.8,13,0.00,,---,0.00,VWS V14.01,2013-01-17 07:20:00,
2013-01-16 23:40:00,43.9,-3.8,30.33,North,5,8.3,15.0,13,0.00,,---,0.00,VWS V14.01,2013-01-17 07:40:00,